User: anonymous   Login
Location: Unspecified
(0.0000°N, 0.0000°E)
Time: 02:08:16
(UTC+00:00)
Language:

STARLINK-32471 - Orbit

View from above orbital plane
View from above orbital plane
View from above satellite
View from above satellite

Ground track
Ground track

The orbit is defined by the following mean orbital elements,

1 61968U          26145.26204009 +.00000000 +00000-0 +63670-3 0 00009
2 61968  43.0026 100.2138 0001521 258.5778 101.4903 15.27590219    02
Epoch (UTC): 25 May 2026 06:17:20
Eccentricity: 0.0001521
inclination: 43.0026°
perigee height: 482 km
apogee height: 484 km
right ascension of ascending node: 100.2138°
argument of perigee: 258.5778°
revolutions per day: 15.27590219
mean anomaly at epoch: 101.4903°

The dashed part of the orbit path shows where the satellite is in the earth's shadow,  

DLR